SQ9IWE-13 Weather Reports


Display with metric or nautical units.
time (UTC)temp
F
wind
direction
speed
MPH
gust
MPH
rain 1hr
in
rain 24hr
in
rain mn
in
humidity
%
barometer
mb
20260905234001 58 0 0.0 0.0 0.00 0.00 0.00 84 1020.4
20260905233001 57 0 0.0 0.0 0.00 0.00 0.00 86 1020.4
20260905232001 57 0 0.0 0.0 0.00 0.00 0.00 87 1020.4
20260905231001 57 0 0.0 0.0 0.00 0.00 0.00 87 1020.4
20260905230001 57 0 0.0 0.0 0.00 0.00 0.00 87 1020.3
20260905225001 57 0 0.0 0.0 0.00 0.00 0.00 87 1020.2
20260905224001 57 0 0.0 0.0 0.00 0.00 0.00 88 1020.1
20260905223001 57 0 0.0 0.0 0.00 0.00 0.00 88 1020.1
20260905222001 57 0 0.0 0.0 0.00 0.00 0.00 88 1020.0
20260905221001 57 0 0.0 0.0 0.00 0.00 0.00 88 1020.0
20260905220001 57 0 0.0 0.0 0.00 0.00 0.00 88 1020.1
20260905215001 57 0 0.0 0.0 0.00 0.00 0.00 88 1020.1
20260905214001 57 0 0.0 0.0 0.00 0.00 0.00 88 1020.0
20260905213001 57 0 0.0 0.0 0.00 0.00 0.00 88 1020.0
20260905212000 57 0 0.0 0.0 0.00 0.00 0.00 87 1019.9
20260905211000 58 0 0.0 0.0 0.00 0.00 0.00 86 1020.1
20260905210000 59 0 0.0 0.0 0.00 0.00 0.00 81 1020.3
20260905205000 60 0 0.0 0.0 0.00 0.00 0.00 74 1020.1
20260905204000 61 0 0.0 0.0 0.00 0.00 0.00 70 1020.0
20260905203000 64 0 0.0 0.0 0.00 0.00 0.00 63 1019.7
20260905202000 64 0 0.0 0.0 0.00 0.00 0.00 59 1018.7
20260905201000 64 0 0.0 0.0 0.00 0.00 0.00 59 1018.5
20260905200000 64 0 0.0 0.0 0.00 0.00 0.00 58 1018.4
20260905195000 65 0 0.0 0.0 0.00 0.00 0.00 57 1018.3
20260905194000 65 0 0.0 0.0 0.00 0.00 0.00 57 1018.2
20260905192000 66 0 0.0 0.0 0.00 0.00 0.00 56 1018.2
20260905191000 66 0 0.0 0.0 0.00 0.00 0.00 57 1018.2
20260905190000 66 0 0.0 0.0 0.00 0.00 0.00 57 1018.0
20260905185000 65 0 0.0 0.0 0.00 0.00 0.00 58 1018.0
20260905184000 66 0 0.0 0.0 0.00 0.00 0.00 57 1018.0
20260905183000 66 0 0.0 0.0 0.00 0.00 0.00 57 1017.7
20260905182001 66 0 0.0 0.0 0.00 0.00 0.00 57 1017.6
20260905181001 66 0 0.0 0.0 0.00 0.00 0.00 57 1017.7
20260905175001 67 0 0.0 0.0 0.00 0.00 0.00 57 1017.5
20260905174001 67 0 0.0 0.0 0.00 0.00 0.00 58 1017.4
20260905173001 67 0 0.0 0.0 0.00 0.00 0.00 58 1017.4
20260905172001 68 0 0.0 0.0 0.00 0.00 0.00 58 1017.3
20260905171001 68 0 0.0 0.0 0.00 0.00 0.00 57 1017.3
20260905170001 68 0 0.0 0.0 0.00 0.00 0.00 57 1017.1
20260905165001 68 0 0.0 0.0 0.00 0.00 0.00 56 1017.1
20260905164001 69 0 0.0 0.0 0.00 0.00 0.00 55 1016.9
20260905163001 70 0 0.0 0.0 0.00 0.00 0.00 54 1016.9
20260905162001 70 0 0.0 0.0 0.00 0.00 0.00 53 1016.7
20260905161001 71 0 0.0 0.0 0.00 0.00 0.00 52 1016.5
20260905160001 71 0 0.0 0.0 0.00 0.00 0.00 51 1016.3
20260905153000 72 0 0.0 0.0 0.00 0.00 0.00 50 1016.3
20260905152000 72 0 0.0 0.0 0.00 0.00 0.00 50 1016.2
20260905151000 73 0 0.0 0.0 0.00 0.00 0.00 51 1016.1
20260905150000 72 0 0.0 0.0 0.00 0.00 0.00 52 1016.1
20260905145000 72 0 0.0 0.0 0.00 0.00 0.00 53 1016.0
20260905144000 72 0 0.0 0.0 0.00 0.00 0.00 53 1015.8
20260905143000 72 0 0.0 0.0 0.00 0.00 0.00 53 1015.9
20260905142000 71 0 0.0 0.0 0.00 0.00 0.00 56 1016.0
20260905141000 72 0 0.0 0.0 0.00 0.00 0.00 56 1016.1
20260905140000 72 0 0.0 0.0 0.00 0.00 0.00 54 1016.0
20260905135000 73 0 0.0 0.0 0.00 0.00 0.00 52 1016.0
20260905134000 72 0 0.0 0.0 0.00 0.00 0.00 50 1015.9
20260905132000 73 0 0.0 0.0 0.00 0.00 0.00 55 1016.1
20260905131001 73 0 0.0 0.0 0.00 0.00 0.00 57 1016.2
20260905130001 72 0 0.0 0.0 0.00 0.00 0.00 55 1016.3
20260905125001 72 0 0.0 0.0 0.00 0.00 0.00 55 1016.3
20260905124001 73 0 0.0 0.0 0.00 0.00 0.00 54 1016.4
20260905123001 72 0 0.0 0.0 0.00 0.00 0.00 56 1016.3
20260905122001 72 0 0.0 0.0 0.00 0.00 0.00 53 1016.3
20260905121001 73 0 0.0 0.0 0.00 0.00 0.00 54 1016.4
20260905120001 74 0 0.0 0.0 0.00 0.00 0.00 52 1016.5
20260905115001 76 0 0.0 0.0 0.00 0.00 0.00 52 1016.3
20260905114001 73 0 0.0 0.0 0.00 0.00 0.00 53 1016.4
20260905113001 76 0 0.0 0.0 0.00 0.00 0.00 52 1016.4
20260905112001 74 0 0.0 0.0 0.00 0.00 0.00 55 1016.5
20260905111001 74 0 0.0 0.0 0.00 0.00 0.00 56 1016.5
20260905110001 73 0 0.0 0.0 0.00 0.00 0.00 56 1016.5
20260905105001 70 0 0.0 0.0 0.00 0.00 0.00 59 1016.4
20260905104001 70 0 0.0 0.0 0.00 0.00 0.00 60 1016.4
20260905103000 73 0 0.0 0.0 0.00 0.00 0.00 57 1016.5
20260905102000 74 0 0.0 0.0 0.00 0.00 0.00 55 1016.3
20260905101000 77 0 0.0 0.0 0.00 0.00 0.00 54 1016.2
20260905100000 76 0 0.0 0.0 0.00 0.00 0.00 54 1016.3
20260905095000 75 0 0.0 0.0 0.00 0.00 0.00 56 1016.2
20260905094000 68 0 0.0 0.0 0.00 0.00 0.00 65 1016.2
20260905093000 68 0 0.0 0.0 0.00 0.00 0.00 65 1016.3
20260905092000 68 0 0.0 0.0 0.00 0.00 0.00 65 1016.4
20260905091000 68 0 0.0 0.0 0.00 0.00 0.00 67 1016.4
20260905090000 70 0 0.0 0.0 0.00 0.00 0.00 64 1016.2
20260905085000 70 0 0.0 0.0 0.00 0.00 0.00 63 1016.3
20260905084000 72 0 0.0 0.0 0.00 0.00 0.00 64 1016.1
20260905083000 74 0 0.0 0.0 0.00 0.00 0.00 61 1016.2
20260905082000 73 0 0.0 0.0 0.00 0.00 0.00 63 1016.2
20260905081000 68 0 0.0 0.0 0.00 0.00 0.00 70 1016.4
20260905080000 68 0 0.0 0.0 0.00 0.00 0.00 70 1016.4
20260905075000 66 0 0.0 0.0 0.00 0.00 0.00 74 1016.4
20260905074000 63 0 0.0 0.0 0.00 0.00 0.00 78 1016.3
20260905073000 62 0 0.0 0.0 0.00 0.00 0.00 79 1016.3
20260905072000 61 0 0.0 0.0 0.00 0.00 0.00 81 1016.2
20260905071001 61 0 0.0 0.0 0.00 0.00 0.00 82 1016.1
20260905070001 61 0 0.0 0.0 0.00 0.00 0.00 82 1015.9
20260905065001 61 0 0.0 0.0 0.00 0.00 0.00 81 1015.7
20260905064001 61 0 0.0 0.0 0.00 0.00 0.00 81 1015.8
20260905063001 61 0 0.0 0.0 0.00 0.00 0.00 81 1015.7
20260905062001 61 0 0.0 0.0 0.00 0.00 0.00 81 1015.5
20260905061001 60 0 0.0 0.0 0.00 0.00 0.00 82 1015.5
20260905060001 60 0 0.0 0.0 0.00 0.00 0.00 82 1015.4
20260905055001 60 0 0.0 0.0 0.00 0.00 0.00 82 1015.4
20260905054001 60 0 0.0 0.0 0.00 0.00 0.00 83 1014.9
20260905053001 60 0 0.0 0.0 0.00 0.00 0.00 83 1014.9
20260905052001 60 0 0.0 0.0 0.00 0.00 0.00 83 1014.8
20260905051001 61 0 0.0 0.0 0.00 0.00 0.00 83 1015.2
20260905050001 61 0 0.0 0.0 0.00 0.00 0.00 82 1014.6
20260905045001 62 0 0.0 0.0 0.00 0.00 0.00 80 1014.3
20260905044001 62 0 0.0 0.0 0.00 0.00 0.00 80 1014.4
20260905043000 62 0 0.0 0.0 0.00 0.00 0.00 81 1014.1
20260905042000 62 0 0.0 0.0 0.00 0.00 0.00 81 1014.3
20260905041000 62 0 0.0 0.0 0.00 0.00 0.00 81 1014.3
20260905040000 63 0 0.0 0.0 0.00 0.00 0.00 80 1013.9
20260905035000 63 0 0.0 0.0 0.00 0.00 0.00 81 1013.8
20260905034000 63 0 0.0 0.0 0.00 0.00 0.00 82 1013.8
20260905033000 62 0 0.0 0.0 0.00 0.00 0.00 82 1013.2
20260905032000 62 0 0.0 0.0 0.00 0.00 0.00 82 1013.1
20260905031000 62 0 0.0 0.0 0.00 0.00 0.00 82 1013.1
20260905030000 63 0 0.0 0.0 0.00 0.00 0.00 81 1012.9
20260905025000 8 0 0.0 0.0 0.00 0.00 0.00 81 17.4
20260905024000 63 0 0.0 0.0 0.00 0.00 0.00 82 1013.0
20260905023000 63 0 0.0 0.0 0.00 0.00 0.00 83 1013.3
20260905022000 63 0 0.0 0.0 0.00 0.00 0.00 83 1013.2
20260905020847 63 0 0.0 0.0 0.00 0.00 0.00 84 1013.6
20260905015001 63 0 0.0 0.0 0.00 0.00 0.00 83 1013.0
20260905014001 63 0 0.0 0.0 0.00 0.00 0.00 80 1013.0
20260905013000 64 0 0.0 0.0 0.00 0.00 0.00 80 1012.6
20260905012000 64 0 0.0 0.0 0.00 0.00 0.00 80 1012.7
20260905011000 64 0 0.0 0.0 0.00 0.00 0.00 80 1013.0
20260905010000 65 0 0.0 0.0 0.00 0.00 0.00 76 1013.0
20260905005000 66 0 0.0 0.0 0.00 0.00 0.00 72 1012.8
20260905004000 66 0 0.0 0.0 0.00 0.00 0.00 71 1012.7
20260905003000 67 0 0.0 0.0 0.00 0.00 0.00 69 1012.6
20260905002000 67 0 0.0 0.0 0.00 0.00 0.00 68 1012.4
20260905001000 67 0 0.0 0.0 0.00 0.00 0.00 67 1012.4
20260905000001 67 0 0.0 0.0 0.00 0.00 0.00 67 1012.4
20260904235001 67 0 0.0 0.0 0.00 0.00 0.00 67 1011.9